Regional Weather Roundup
Issued by NWS

Home | Current Version | Previous Version | Text Only | Print | Product List | Glossary On
Versions: 1 2 3 4 5 6 7 8 9 10 11 12 13 14 15 16 17 18 19 20 21 22 23 24 25 26 27 28 29 30 31 32 33 34 35 36 37 38 39 40 41 42 43 44 45 46 47 48 49 50
000
ASUS46 KPQR 051610
RWROR

OREGON REGIONAL WEATHER ROUNDUP
NATIONAL WEATHER SERVICE PORTLAND OR
900 AM PDT SAT SEP 05 2015

NOTE: "FAIR" INDICATES FEW OR NO CLOUDS BELOW 12,000 FEET WITH
NO SIGNIFICANT WEATHER AND/OR OBSTRUCTIONS TO VISIBILITY.

ORZ001>013-051700-
NORTHWEST OREGON


CITY           SKY/WX    TMP DP  RH WIND       PRES   REMARKS
ASTORIA        MOSUNNY   58  54  86 SW8       30.11R
NEWPORT        SUNNY     55  54  94 CALM      30.19R
PORTLAND       CLOUDY    54  49  83 S6        30.15R
VANCOUVER WA   CLOUDY    55  47  74 S3        30.14R
SCAPPOOSE      CLOUDY    53  49  86 CALM      30.13R
HILLSBORO      CLOUDY    50  46  86 CALM      30.14R
AURORA         CLOUDY    53  48  83 S5        30.16R
MCMINNVILLE    MOSUNNY   51  47  86 CALM      30.16R
SALEM          PTSUNNY   53  47  79 S7        30.15R
CORVALLIS      SUNNY     52  46  82 SE6       30.18R
EUGENE         MOSUNNY   51  47  86 S6        30.18R
$$

ORZ021-028-051700-
SOUTHWEST OREGON


CITY           SKY/WX    TMP DP  RH WIND       PRES   REMARKS
NORTH BEND     SUNNY     54  52  94 SE7       30.19R
BROOKINGS      SUNNY     61  44  53 VRB5      30.14R
ROSEBURG       CLOUDY    50  47  89 CALM      30.20R
SEXTON SUMMIT  SUNNY     43  37  79 CALM      30.15R
MEDFORD        MOSUNNY   50  42  74 CALM      30.17R
$$

ORZ014>016-041-051700-
COLUMBIA GORGE


CITY           SKY/WX    TMP DP  RH WIND       PRES   REMARKS
TROUTDALE      CLOUDY    55  47  74 SW5       30.15R
THE DALLES     MOSUNNY   63  42  46 W16G28    30.02R
$$

ORZ029>031-041-044-049-050-061>064-502-503-505>511-051700-
EASTERN OREGON


CITY           SKY/WX    TMP DP  RH WIND       PRES   REMARKS
REDMOND        SUNNY     49  36  61 SW3       30.09R
BEND           SUNNY     46  36  66 SW7       30.10R
PRINEVILLE     SUNNY     46  39  76 N3        30.09S
KLAMATH FALLS  SUNNY     43  34  70 CALM      30.14R
LAKEVIEW       SUNNY     39  34  81 S5          N/A
HERMISTON      CLOUDY    55  46  71 SW13G23   29.96R
PENDLETON      CLOUDY    51  43  74 W16       29.96S
JOHN DAY       CLOUDY    46  41  85 SW7       30.06R
MEACHAM        LGT RAIN  42  40  92 VRB3      29.96F
LA GRANDE      CLOUDY    43  34  70 SE9       30.00R
BAKER CITY     LGT RAIN  41  39  93 NE9       30.01R
BURNS          PTSUNNY   46  36  68 W13       30.09R
ROME             N/A     50  34  54 VRB3      30.07R
ONTARIO        CLOUDY    50  45  83 SW5       30.05R
$$



USA.gov is the U.S. government's official web portal to all federal, state and local government web resources and services.